Location: Corcelles
(46.1547°N, 4.7234°E)
Time: 03:34:55
(UTC+00:00)

Cosmos 1140 Rocket - Pass Details

Date: 14 July 2020
Orbit: 744 x 768 km, 74.1° (Epoch: 06 August)

Event Time Altitude Azimuth Distance (km) Brightness Sun altitude
Exits shadow 02:32:12 16° 241° (WSW) 1,924 5.0 -12.6°
Maximum altitude 02:35:53 36° 301° (WNW) 1,203 4.4 -12.2°
Drops below altitude 10° 02:40:42 10° 7° (N) 2,314 6.9 -11.7°
Sets 02:43:17 0° 16° (NNE) 3,246 8.1 -11.4°
